Time,TemperatureF,DewpointF,PressureIn,WindDirection,WindDirectionDegrees,WindSpeedMPH,WindSpeedGustMPH,Humidity,HourlyPrecipIn,Conditions,Clouds,dailyrainin,SoftwareType,DateUTC
2013-01-31 00:00:00,47.1,38.3,29.25,SW,225,11.9,21.9,71,0.00,,,0.00,WUHU21623XXSP,2013-01-31 05:00:00,
2013-01-31 00:01:00,47.1,38.3,29.25,SSW,210,12.1,18.6,71,0.00,,,0.00,WUHU21623XXSP,2013-01-31 05:01:00,
2013-01-31 00:02:00,47.1,38.3,29.25,SW,225,11.9,18.6,71,0.00,,,0.00,WUHU21623XXSP,2013-01-31 05:02:00,
2013-01-31 00:10:00,47.1,38.3,29.25,SW,225,9.8,9.8,71,0.00,,,0.00,WUHU21623XXSP,2013-01-31 05:10:00,
2013-01-31 00:15:00,46.6,37.9,29.22,SW,221,11.0,20.6,71,0.00,,,0.00,WUHU21623XXSP,2013-01-31 05:15:00,
2013-01-31 00:21:00,46.4,37.4,29.23,SW,233,9.0,21.9,70,0.00,,,0.00,WUHU21623XXSP,2013-01-31 05:21:00,
2013-01-31 00:26:00,46.2,37.2,29.23,West,270,15.7,21.9,70,0.00,,,0.00,WUHU21623XXSP,2013-01-31 05:26:00,
2013-01-31 00:31:00,46.0,37.0,29.22,SW,223,15.5,24.6,70,0.00,,,0.00,WUHU21623XXSP,2013-01-31 05:31:00,
2013-01-31 00:36:00,45.5,36.5,29.23,WSW,241,14.1,24.6,70,0.00,,,0.00,WUHU21623XXSP,2013-01-31 05:36:00,
2013-01-31 00:41:00,45.1,36.1,29.23,WSW,237,12.2,18.3,70,0.00,,,0.00,WUHU21623XXSP,2013-01-31 05:41:00,
2013-01-31 00:46:00,45.0,36.0,29.23,SW,225,11.7,17.2,70,0.00,,,0.00,WUHU21623XXSP,2013-01-31 05:46:00,
2013-01-31 00:51:00,44.6,35.6,29.22,WSW,247,15.4,20.6,70,0.00,,,0.00,WUHU21623XXSP,2013-01-31 05:51:00,
2013-01-31 00:56:00,44.4,35.5,29.24,WNW,292,13.2,22.8,70,0.00,,,0.00,WUHU21623XXSP,2013-01-31 05:56:00,
2013-01-31 01:01:00,43.9,34.7,29.24,WSW,247,11.2,26.4,70,0.00,,,0.00,WUHU21623XXSP,2013-01-31 06:01:00,
2013-01-31 01:06:00,43.0,33.2,29.21,SW,225,19.5,26.4,68,0.00,,,0.00,WUHU21623XXSP,2013-01-31 06:06:00,
2013-01-31 01:11:00,42.4,32.7,29.21,SW,230,10.0,19.9,68,0.00,,,0.00,WUHU21623XXSP,2013-01-31 06:11:00,
2013-01-31 01:16:00,41.9,32.2,29.20,SW,226,12.1,20.1,68,0.00,,,0.00,WUHU21623XXSP,2013-01-31 06:16:00,
2013-01-31 01:21:00,41.5,32.1,29.21,SW,231,10.3,20.1,69,0.00,,,0.00,WUHU21623XXSP,2013-01-31 06:21:00,
2013-01-31 01:26:00,41.2,31.8,29.21,WSW,247,8.9,13.9,69,0.00,,,0.00,WUHU21623XXSP,2013-01-31 06:26:00,
2013-01-31 01:33:00,41.0,31.6,29.19,WSW,240,6.9,22.6,69,0.00,,,0.00,WUHU21623XXSP,2013-01-31 06:33:00,
2013-01-31 01:38:00,40.8,31.7,29.19,WSW,247,14.3,22.6,70,0.00,,,0.00,WUHU21623XXSP,2013-01-31 06:38:00,
2013-01-31 01:43:00,41.0,31.9,29.22,SW,221,10.6,17.9,70,0.00,,,0.00,WUHU21623XXSP,2013-01-31 06:43:00,
2013-01-31 01:48:00,41.0,31.9,29.23,SSW,202,9.2,17.9,70,0.00,,,0.00,WUHU21623XXSP,2013-01-31 06:48:00,
2013-01-31 01:54:00,41.0,31.9,29.20,WSW,243,5.8,14.1,70,0.00,,,0.00,WUHU21623XXSP,2013-01-31 06:54:00,
2013-01-31 01:59:00,41.0,31.9,29.22,WSW,239,10.5,15.2,70,0.00,,,0.00,WUHU21623XXSP,2013-01-31 06:59:00,
2013-01-31 02:04:00,41.0,32.2,29.24,West,270,14.8,15.2,70,0.00,,,0.00,WUHU21623XXSP,2013-01-31 07:04:00,
2013-01-31 02:09:00,39.6,29.7,29.26,West,269,8.2,17.0,67,0.00,,,0.00,WUHU21623XXSP,2013-01-31 07:09:00,
2013-01-31 02:14:00,37.4,27.6,29.26,West,270,9.6,17.0,67,0.00,,,0.00,WUHU21623XXSP,2013-01-31 07:14:00,
2013-01-31 02:19:00,36.3,26.8,29.25,West,261,7.4,15.2,68,0.00,,,0.00,WUHU21623XXSP,2013-01-31 07:19:00,
2013-01-31 02:24:00,35.8,26.6,29.25,WSW,247,6.7,13.6,69,0.00,,,0.00,WUHU21623XXSP,2013-01-31 07:24:00,
2013-01-31 02:29:00,35.4,26.2,29.24,WNW,292,16.1,16.1,69,0.00,,,0.00,WUHU21623XXSP,2013-01-31 07:29:00,
2013-01-31 02:34:00,35.2,26.3,29.26,WSW,239,6.6,16.1,70,0.00,,,0.00,WUHU21623XXSP,2013-01-31 07:34:00,
2013-01-31 02:39:00,34.9,26.0,29.27,WSW,248,7.6,21.7,70,0.00,,,0.00,WUHU21623XXSP,2013-01-31 07:39:00,
2013-01-31 02:44:00,34.3,25.2,29.28,SW,225,9.4,21.7,69,0.00,,,0.00,WUHU21623XXSP,2013-01-31 07:44:00,
2013-01-31 02:49:00,34.0,24.9,29.28,WSW,246,11.8,23.9,69,0.00,,,0.00,WUHU21623XXSP,2013-01-31 07:49:00,
2013-01-31 02:54:00,33.3,24.2,29.29,WSW,252,8.3,28.2,69,0.00,,,0.00,WUHU21623XXSP,2013-01-31 07:54:00,
2013-01-31 03:03:00,32.5,23.5,29.28,SW,225,14.1,26.6,69,0.00,,,0.00,WUHU21623XXSP,2013-01-31 08:03:00,
2013-01-31 03:08:00,32.2,23.2,29.28,WSW,247,9.6,26.6,69,0.00,,,0.00,WUHU21623XXSP,2013-01-31 08:08:00,
2013-01-31 03:13:00,32.0,23.0,29.28,NW,315,29.8,29.8,69,0.00,,,0.00,WUHU21623XXSP,2013-01-31 08:13:00,
2013-01-31 03:18:00,31.8,22.8,29.28,WSW,247,17.9,29.8,69,0.00,,,0.00,WUHU21623XXSP,2013-01-31 08:18:00,
2013-01-31 03:23:00,31.6,22.9,29.28,WSW,244,12.3,24.6,70,0.00,,,0.00,WUHU21623XXSP,2013-01-31 08:23:00,
2013-01-31 03:28:00,31.6,22.9,29.28,WSW,247,8.7,23.9,70,0.00,,,0.00,WUHU21623XXSP,2013-01-31 08:28:00,
2013-01-31 03:33:00,31.3,22.6,29.28,SW,227,9.3,20.1,70,0.00,,,0.00,WUHU21623XXSP,2013-01-31 08:33:00,
2013-01-31 03:38:00,31.1,22.4,29.29,WSW,247,14.5,20.1,70,0.00,,,0.00,WUHU21623XXSP,2013-01-31 08:38:00,
2013-01-31 03:43:00,30.9,22.2,29.30,SSW,212,10.1,23.5,70,0.00,,,0.00,WUHU21623XXSP,2013-01-31 08:43:00,
2013-01-31 03:48:00,30.7,22.0,29.31,WSW,239,14.4,26.6,70,0.00,,,0.00,WUHU21623XXSP,2013-01-31 08:48:00,
2013-01-31 03:53:00,30.6,22.2,29.30,WSW,247,9.6,26.6,70,0.00,,,0.00,WUHU21623XXSP,2013-01-31 08:53:00,
2013-01-31 03:58:00,30.0,21.6,29.31,WSW,247,11.6,26.6,70,0.00,,,0.00,WUHU21623XXSP,2013-01-31 08:58:00,
2013-01-31 04:03:00,30.0,21.6,29.31,WSW,239,10.7,21.7,70,0.00,,,0.00,WUHU21623XXSP,2013-01-31 09:03:00,
2013-01-31 04:08:00,29.8,21.4,29.31,West,270,15.7,21.7,70,0.00,,,0.00,WUHU21623XXSP,2013-01-31 09:08:00,
2013-01-31 04:13:00,29.5,20.8,29.30,WSW,243,15.0,25.5,70,0.00,,,0.00,WUHU21623XXSP,2013-01-31 09:13:00,